Regional Weather Roundup
Issued by NWS

Home | Current Version | Previous Version | Graphics & Text | Print | Product List | Glossary On
Versions: 1 2 3 4 5 6 7 8 9 10 11 12 13 14 15 16 17 18 19 20 21 22 23 24 25 26 27 28 29 30 31 32 33 34 35 36 37 38 39 40 41 42 43 44 45 46 47 48 49 50
323
ASUS43 KMPX 291210
RWRMN
WEATHER ROUNDUP FOR MINNESOTA
NATIONAL WEATHER SERVICE TWIN CITIES/CHANHASSEN MN
700 AM CDT WED MAR 29 2017


NOTE: "FAIR" INDICATES FEW OR NO CLOUDS BELOW 12,000 FEET WITH NO
SIGNIFICANT WEATHER AND/OR OBSTRUCTIONS TO VISIBILITY. N/A MEANS
CURRENT SKY AND/OR WEATHER CONDITIONS ARE NOT AVAILABLE.

MNZ060>063-068>070-291300-
   Twin Cities Metro

CITY           SKY/WX    TMP DP  RH WIND       PRES   REMARKS
TWIN CITIES    CLOUDY    45  32  60 E8        30.21R
6HR MIN TEMP:  42; 6HR MAX TEMP:  47;

ST PAUL        CLOUDY    41  36  82 CALM      30.22S
CRYSTAL        CLOUDY    38  29  70 NE3       30.20S
BLAINE         MOCLDY    37  32  81 NE5       30.21S
LAKEVILLE      CLOUDY    37  34  87 CALM      30.20S
EDEN PRAIRIE   CLOUDY    44  33  65 E6        30.19R
6HR MIN TEMP:  41; 6HR MAX TEMP:  48;

SOUTH ST PAUL  CLOUDY    40  32  73 CALM      30.21S
LAKE ELMO      FAIR      36  32  87 CALM      30.23R
$$
MNZ001>005-007-008-013>017-022>024-027-028-291300-
   Northwest Minnesota

CITY           SKY/WX    TMP DP  RH WIND       PRES   REMARKS
BEMIDJI        CLOUDY    33  27  79 E6        30.22S WCI  28
HALLOCK        CLOUDY    34  30  86 CALM      30.18S
ROSEAU         CLOUDY    37  30  75 SE6       30.19F
WARROAD        CLOUDY    34  30  86 E7        30.21F WCI  28
THIEF RVR FALL CLOUDY    36  28  73 E8        30.19S
CROOKSTON      CLOUDY    36  30  80 CALM      30.19R
FOSSTON        CLOUDY    37  28  70 E5        30.18F
DETROIT LAKES  CLOUDY    39  30  70 SE6       30.20S
MOORHEAD       CLOUDY    37  32  81 SE6       30.17F
PARK RAPIDS    PTCLDY    37  25  61 SE5       30.20S
MAHNOMEN       FAIR      41  29  64 SE9       30.17F
$$
MNZ006-009>011-018-025>026-291300-
   North Central Minnesota

CITY           SKY/WX    TMP DP  RH WIND       PRES   REMARKS
BAUDETTE       CLOUDY    33  26  75 SE10      30.23S WCI  25
FLAG ISLAND    CLOUDY    34  23  64 E8        30.22F WCI  27
INTL FALLS     CLOUDY    32  25  75 E6        30.28R WCI  26
6HR MIN TEMP:  31; 6HR MAX TEMP:  37;

WASKISH        CLOUDY    34  27  75 E7        30.23S WCI  28
BIG FORK       PTCLDY    32  25  74 CALM      30.26S
LONGVILLE      CLEAR     32  27  80 CALM      30.23S
GRAND RAPIDS   CLEAR     32  23  69 SE6       30.27S WCI  26
CRANE LAKE     PTCLDY    25  23  93 CALM      30.32R
ORR            CLOUDY    30  21  69 CALM      30.26R
COOK           PTCLDY    28  25  86 E3        30.28S
WALKER         FAIR      32  27  80 CALM      30.22S
$$
MNZ012-019>021-037-291300-
   Northeast Minnesota

CITY           SKY/WX    TMP DP  RH WIND       PRES   REMARKS
DULUTH         CLOUDY    32  27  81 E16       30.28S WCI  21
6HR MIN TEMP:  32; 6HR MAX TEMP:  36;

ELY            CLEAR     25  21  86 CALM      30.30R
HIBBING        CLEAR     25  24  96 CALM      30.27R
EVELETH        CLEAR     30  19  63 NE5       30.29R WCI  26
DULUTH HARBOR  CLOUDY    36  32  87 NE16      30.33S
TWO HARBORS    CLOUDY    36  28  75 NE7       30.30S
GRAND MARAIS     N/A     34  25  69 NE12      30.37R WCI  25
G MARAIS ARPRT PTCLDY    27  19  74 NE8       30.33R WCI  18
$$
MNZ029>031-032-039>041-046>048-054>057-064-291300-
   West Central Minnesota

CITY           SKY/WX    TMP DP  RH WIND       PRES   REMARKS
FERGUS FALLS   CLOUDY    39  30  70 E6        30.22R
WHEATON        FOG       34  34 100 CALM      30.20R VSB 1/4
MORRIS         CLOUDY    37  30  75 E8        30.17R
ALEXANDRIA     MOCLDY    39  29  67 E8        30.19S
ELBOW LAKE     FAIR      39  33  79 CALM      30.18S
WADENA         CLOUDY    36  27  69 E3        30.20S
GLENWOOD       PTCLDY    37  28  70 E5        30.19R
APPLETON       CLOUDY    37  30  75 CALM      30.18R
BENSON         CLOUDY    43  27  52 SE6       30.19R
ORTONVILLE     CLOUDY    36  34  93 CALM      30.17R
MADISON        CLOUDY    37  37 100 CALM      30.18R
WILLMAR        FAIR      39  32  75 E3        30.20R
$$
MNZ033>034-036-042>043-049>051-058-059-291300-
   Central Minnesota

CITY           SKY/WX    TMP DP  RH WIND       PRES   REMARKS
ST CLOUD       CLOUDY    35  29  78 E8        30.21S WCI  29
6HR MIN TEMP:  32; 6HR MAX TEMP:  40;

SAUK CENTRE    FAIR      38  29  71 E6        30.20R
PAYNESVILLE    CLOUDY    35  30  82 CALM      30.20R
AITKIN         MOCLDY    32  27  80 CALM      30.23S
PINE RIVER     CLEAR     32  27  80 CALM      30.26S
BRAINERD       MOCLDY    32  28  85 NE6       30.23S WCI  26
STAPLES        MOCLDY    34  27  75 E3        30.21S
LONG PRAIRIE   FAIR      34  28  80 NE3       30.20S
LITTLE FALLS   CLOUDY    34  28  80 CALM      30.21F
LITCHFIELD     MOCLDY    39  30  70 CALM      30.19S
BUFFALO        CLOUDY    37  28  70 NE6       30.21S
MAPLE LAKE     CLOUDY    37  30  75 NE3       30.21S
HUTCHINSON     CLOUDY    38  32  78 NE3       30.20R
$$
MNZ037-044-045-052-053-291300-
   East Central Minnesota

CITY           SKY/WX    TMP DP  RH WIND       PRES   REMARKS
PRINCETON      CLOUDY    36  30  80 NE5       30.23S
MORA           CLOUDY    32  28  86 NE3       30.26S
CAMBRIDGE      CLOUDY    36  27  69 NE3       30.22S
RUSH CITY      CLOUDY    33  29  86 NE5       30.25R WCI  28
MOOSE LAKE     CLOUDY    32  28  86 NE6       30.25F WCI  26
CLOQUET        CLOUDY    32  27  80 E9G17     30.28S WCI  24
MCGREGOR       PTCLDY    32  28  86 E5        30.25F WCI  27
$$
MNZ071>073-080-081-089-090-097-098-291300-
   Southwest Minnesota

CITY           SKY/WX    TMP DP  RH WIND       PRES   REMARKS
MONTEVIDEO     MOCLDY    34  30  86 E3        30.18R
GRANITE FALLS  CLOUDY    38  33  84 N3        30.19R
CANBY          CLOUDY    36  35  94 CALM      30.18R
MARSHALL       CLOUDY    38  33  82 W3        30.17R
REDWOOD FALLS  CLOUDY    44  32  62 E6        30.17R
OLIVIA         CLOUDY    39  32  75 E3        30.17S
PIPESTONE      CLOUDY    43  34  70 E5        30.14R
WINDOM         CLOUDY    39  37  93 CALM      30.16R
WORTHINGTON    CLOUDY    38  36  92 N3        30.16R
JACKSON        CLOUDY    39  36  87 CALM      30.16R
TRACY          CLOUDY    40  36  85 CALM      30.16S
SLAYTON        CLOUDY    37  34  90 CALM      30.16R
$$
MNZ065>067-074>077-082>085-091>093-291300-
   South Central Minnesota

CITY           SKY/WX    TMP DP  RH WIND       PRES   REMARKS
MANKATO        CLOUDY    42  37  82 E8        30.19R
NEW ULM        CLOUDY    41  34  75 NE3       30.17S
ST JAMES       CLOUDY    39  36  87 CALM      30.18R
FAIRMONT       CLOUDY    39  37  92 E3        30.17R
GLENCOE        CLOUDY    39  35  86 CALM      30.19R
FARIBAULT      CLOUDY    43  37  81 SE7       30.20R
OWATONNA       CLOUDY    43  36  75 SE3       30.19S
WASECA         CLOUDY    41  36  81 E6        30.20S
ALBERT LEA     CLOUDY    43  36  75 E3        30.18R
$$
MNZ078>079-086>088-094>096-291300-
   Southeast Minnesota

CITY           SKY/WX    TMP DP  RH WIND       PRES   REMARKS
ROCHESTER      CLOUDY    40  35  83 E9        30.19S
6HR MIN TEMP:  38; 6HR MAX TEMP:  45;

RED WING       CLOUDY    36  30  80 CALM      30.21S
STANTON        CLOUDY    39  35  83 CALM      30.19S
DODGE CENTER   MOCLDY    39  36  87 E3        30.19S
WINONA         CLOUDY    36  36 100 CALM      30.24S
AUSTIN         CLOUDY    41  36  81 E6        30.19R
PRESTON        CLOUDY    39  33  78 E7        30.19S
$$
ABBREVIATIONS USED IN REMARKS
   TC - TEMPERATURES IN CELSIUS
  WCI - WIND CHILL INDEX
   HX - HEAT INDEX
  VSB - VISIBILITY
$$




USA.gov is the U.S. government's official web portal to all federal, state and local government web resources and services.